Portada
METAR-TAF:

METAR-TAF

Aeroports :

Waynesville Regional Airport at Forney Field

Fort Leonard Wood, Missouri, Estats Units d'Amèrica

latitud: 37-44N, longitud: 092-08W, altitud: 353 m

Observació

L'informe es va fer fa 44 minuts, a les 23:56 UTC
Vent 8 kt del Nord-Oest
Temperatura 5°C
Humitat 100%
Pressió 1018 hPa
Visibilitat: 16.1 km
Cel cobert a una alçada de 400 ft

METAR: KTBN 032356Z AUTO 32008KT 10SM OVC004 05/05 A3006 RMK AO2 RAE17DZB17E30RAB30E39DZB39E42 CIG 003 RWY33 SLP184 P0001 60009 T00540048 10177 20054 52008 $

Hora: 19:40 (00:40 UTC)


TAF: manca

Observacions i pronòstics meteorològics de més de 4000 aeroports (METAR i TAF).

Les estacions disponibles són els punts grocs i vermells al mapa.

Posi el ratolí al punt desitjat per veure el nom de l'estació.

Feu clic per veure les observacions i els pronòstics meteorològics.

Per canviar el mapa: feu clic els botons verds amb una creu de color negre per apropar; al botó verd amb un guió per allunyar la imatge; o en les fletxes verdes per a mapes adjacents.


METAR-TAF: